[[{"header":{"parameterUnit":"m.s-1","parameterCategory":1,"la1":30.2991,"la2":30.254,"lo1":-89.0895,"lo2":-89.0444,"dy":0.0017,"dx":0.0017,"nx":28,"ny":28,"refTime":"2026-01-07T03:00:00:Z","depth":0,"parameterNumber":2,"parameterNumberName":"U-component_of_WINDS"},"data":[0,0,0,0,0,0,0,0,0,0,0,0,0,0,0,0,0,0,0,0,0,0,0,0,0,0,0,0,0,0,0,0,0,0,0,0,0,0,0,0,0,0,0,0,0,0,0,0,0,0,0,0,0,0,0,0,0,0,0.9554,0.9555,0,0.9585,0.9585,0.9586,0.9604,0.9604,0.9604,0.9604,0.9637,0.9638,0.9638,0,0,0,0,0,0,0,0,0,0,0,0,0,0.9513,0.9514,0.9554,0.9555,0.9555,0.9585,0.9585,0.9586,0.9604,0.9604,0.9604,0.9604,0.9636,0.9637,0.9638,0,0,0,0,0,0,0,0,0,0,0,0,0,0.9536,0.9514,0.9554,0.9567,0.9569,0.9585,0.9585,0.9586,0.9604,0.9604,0.9604,0.9604,0.9636,0.9637,0.9639,0.9644,0,0,0.9642,0.9643,0,0,0,0,0,0,0,0,0.9535,0.9537,0.9565,0.9567,0.9568,0.9591,0.9583,0.9605,0.9603,0.959,0.9604,0.9604,0.9621,0.9624,0.9629,0.9646,0.9647,0.9642,0.9643,0.9644,0.9644,0,0,0,0,0,0,0,0.9533,0.9536,0.9566,0.9566,0.9567,0.9573,0.9576,0.9587,0.9605,0.9592,0.9593,0.9596,0.9622,0.9628,0.963,0.9648,0.9642,0.9643,0.9644,0.9645,0.9671,0.9671,0,0,0,0,0,0,0.9529,0.9535,0.9566,0.9567,0.9551,0.9573,0.9577,0.9583,0.9605,0.9608,0.9596,0.9597,0.9626,0.9629,0.9632,0.964,0.9644,0.9645,0.9646,0.9671,0.9671,0.9671,0,0,0,0,0,0,0.9528,0.9532,0.9564,0.9551,0.9556,0.9574,0.9581,0.9584,0.959,0.9608,0.9612,0.9599,0.9626,0.963,0.9641,0.9642,0.9645,0.9646,0.9671,0.9671,0.9671,0.9657,0,0,0,0,0,0,0.9527,0.9531,0.9533,0.9551,0.9557,0.9573,0.9581,0.9584,0.9592,0.9593,0.9612,0.9615,0.9627,0.9639,0.9642,0.9643,0.9647,0.9671,0.9671,0.9671,0.9658,0.9657,0.9656,0,0,0,0,0,0.9525,0.9528,0.9533,0.9537,0.9559,0.9572,0.9576,0.9588,0.9592,0.9594,0.9606,0.9614,0.9641,0.964,0.9644,0.9645,0.9671,0.9671,0.9671,0.9658,0.9657,0.9656,0,0,0,0,0,0,0.9509,0.953,0.9536,0.9545,0.9557,0.9575,0.9579,0.9587,0.9598,0.9599,0.9615,0.9619,0.9629,0.9638,0.9637,0.9652,0.9657,0.9658,0.9646,0.9645,0.9644,0.9642,0.9648,0,0,0,0,0,0.9507,0.9515,0.9534,0.9539,0.9545,0.9561,0.9567,0.9576,0.9589,0.9594,0.9607,0.962,0.9632,0.9639,0.965,0.9659,0.9664,0.9662,0.9661,0.966,0.9661,0.9667,0.9667,0.9671,0.9671,0.9671,0,0,0.9502,0.9514,0.9519,0.9536,0.9547,0.9556,0.9565,0.9574,0.9581,0.9596,0.9607,0.9617,0.9633,0.9643,0.9648,0.9651,0.9661,0.966,0.9659,0.966,0.9667,0.9667,0.9666,0.9671,0.9671,0.9671,0,0,0.9497,0.9507,0.9513,0.9523,0.9539,0.9549,0.9551,0.9569,0.9576,0.9587,0.9599,0.9608,0.9627,0.9638,0.9646,0.9646,0.9655,0.9649,0.9645,0.9651,0.965,0.965,0.9651,0.9651,0.965,0.965,0.965,0,0.9489,0.9502,0.9516,0.9524,0.9532,0.9546,0.9553,0.9562,0.958,0.9586,0.9589,0.9613,0.9625,0.9638,0.9638,0.9644,0.9647,0.9647,0.9649,0.9649,0.9649,0.965,0.965,0.9649,0.9649,0.9649,0.9649,0,0.9492,0.9501,0.9505,0.9522,0.953,0.9538,0.9553,0.956,0.9568,0.9579,0.9591,0.9605,0.962,0.9624,0.9632,0.9639,0.964,0.9646,0.9651,0.9648,0.9649,0.9649,0.9648,0.9648,0.9649,0.9649,0,0,0.9478,0.9503,0.9504,0.9512,0.953,0.9538,0.9547,0.9561,0.9567,0.958,0.9588,0.9604,0.961,0.9619,0.9629,0.9634,0.9634,0.9639,0.9639,0.9638,0.9643,0.9639,0.9639,0.964,0.964,0.964,0.9642,0,0.9477,0.9492,0.9505,0.9516,0.9526,0.9539,0.9547,0.9559,0.9569,0.958,0.9591,0.9603,0.9608,0.9614,0.962,0.9633,0.9635,0.9633,0.9648,0.9649,0.9644,0.964,0.9635,0.9636,0.9642,0.9643,0.9643,0,0.9477,0.9489,0.9501,0.9519,0.9523,0.953,0.9544,0.9553,0.9568,0.9575,0.9586,0.9596,0.9607,0.9611,0.9626,0.9624,0.9632,0.9639,0.9639,0.9642,0.9646,0.9642,0.9637,0.9637,0.9643,0.9643,0.9643,0,0.9466,0.9485,0.9495,0.9502,0.9523,0.9527,0.9536,0.9551,0.9559,0.9572,0.9578,0.9592,0.9599,0.961,0.9625,0.9626,0.9639,0.9644,0.9646,0.9646,0.9648,0.9648,0.9645,0.9652,0.9652,0.9652,0.9652,0,0.9464,0.9471,0.9491,0.9497,0.9506,0.952,0.9529,0.9539,0.9552,0.9561,0.9574,0.9582,0.96,0.9611,0.9622,0.9633,0.9637,0.9643,0.9646,0.9643,0.9642,0.9648,0.9648,0.9652,0.9652,0.9652,0.9652,0,0.9453,0.9467,0.9479,0.9498,0.9503,0.9508,0.9525,0.9532,0.9543,0.9554,0.9558,0.9575,0.9589,0.9604,0.9622,0.963,0.9641,0.9645,0.9636,0.9637,0.9639,0.9638,0.9639,0.9641,0.9647,0.9647,0.9647,0,0.9451,0.9457,0.9476,0.9483,0.9492,0.9502,0.951,0.9525,0.9533,0.9551,0.9556,0.957,0.9582,0.9603,0.9618,0.9633,0.9637,0.9637,0.964,0.9636,0.9638,0.9638,0.9639,0.9636,0.9636,0.9636,0.9636,0,0.9446,0.9452,0.9463,0.9477,0.9486,0.9498,0.951,0.9515,0.9532,0.9541,0.9554,0.9564,0.9583,0.9597,0.9613,0.9623,0.9633,0.9635,0.9636,0.9632,0.9627,0.963,0.9634,0.9634,0.9635,0.9635,0.9635,0.9635,0.944,0.9446,0.946,0.9472,0.9483,0.9494,0.9502,0.9514,0.9525,0.9541,0.955,0.9563,0.9579,0.9601,0.9611,0.9623,0.9626,0.9628,0.9628,0.9628,0.9628,0.9625,0.9626,0.9626,0.9626,0.9626,0.9626,0,0.9435,0.9445,0.9456,0.9473,0.9483,0.949,0.9504,0.9512,0.9523,0.9537,0.9548,0.9564,0.9578,0.9594,0.961,0.9616,0.9621,0.9619,0.9619,0.9622,0.9624,0.9621,0.9615,0.9615,0.9615,0.9615,0.9615,0.9615,0.9434,0.9445,0.9453,0.947,0.948,0.9493,0.9501,0.9511,0.9522,0.9539,0.9551,0.9561,0.9576,0.9592,0.9606,0.961,0.9615,0.9613,0.9619,0.9621,0.9621,0.9622,0.962,0.9614,0.9614,0.9616,0.9616,0.9616]},{"header":{"parameterUnit":"m.s-1","parameterCategory":1,"la1":30.2991,"la2":30.254,"lo1":-89.0895,"lo2":-89.0444,"dy":0.0017,"dx":0.0017,"nx":28,"ny":28,"refTime":"2026-01-07T03:00:00:Z","depth":0,"parameterNumber":3,"parameterNumberName":"V-component_of_WINDS"},"data":[0,0,0,0,0,0,0,0,0,0,0,0,0,0,0,0,0,0,0,0,0,0,0,0,0,0,0,0,0,0,0,0,0,0,0,0,0,0,0,0,0,0,0,0,0,0,0,0,0,0,0,0,0,0,0,0,0,0,2.4374,2.4375,0,2.4395,2.4395,2.4395,2.4391,2.4391,2.439,2.439,2.4408,2.4409,2.441,0,0,0,0,0,0,0,0,0,0,0,0,0,2.4329,2.433,2.4374,2.4375,2.4375,2.4395,2.4395,2.4395,2.4391,2.4391,2.439,2.439,2.4408,2.4409,2.441,0,0,0,0,0,0,0,0,0,0,0,0,0,2.4349,2.433,2.4374,2.4375,2.4376,2.4395,2.4395,2.4395,2.4391,2.4391,2.439,2.439,2.4408,2.4409,2.441,2.4429,0,0,2.4414,2.4414,0,0,0,0,0,0,0,0,2.4348,2.4351,2.4375,2.4375,2.4376,2.439,2.4386,2.4406,2.4391,2.4385,2.439,2.4389,2.4402,2.4404,2.4409,2.4429,2.443,2.4414,2.4415,2.4415,2.4415,0,0,0,0,0,0,0,2.4347,2.435,2.4382,2.4375,2.4376,2.4374,2.4376,2.439,2.4396,2.4386,2.4385,2.4388,2.4402,2.4408,2.4409,2.443,2.4414,2.4415,2.4416,2.4416,2.4467,2.4468,0,0,0,0,0,0,2.4345,2.4349,2.4382,2.4383,2.436,2.4375,2.4378,2.4386,2.4396,2.4397,2.4388,2.4388,2.4406,2.4408,2.441,2.4433,2.4415,2.4416,2.4417,2.4467,2.4467,2.4468,0,0,0,0,0,0,2.4344,2.4348,2.4381,2.4366,2.437,2.4376,2.4386,2.4386,2.4392,2.4399,2.4399,2.4393,2.4406,2.4408,2.4424,2.4433,2.4417,2.4418,2.4466,2.4467,2.4468,2.4478,0,0,0,0,0,0,2.4343,2.4348,2.4356,2.4366,2.4371,2.4396,2.4386,2.4387,2.4394,2.4394,2.4403,2.4404,2.4405,2.4422,2.4425,2.4435,2.4419,2.4465,2.4466,2.4467,2.4477,2.4479,2.4481,0,0,0,0,0,2.4342,2.4357,2.4356,2.436,2.4381,2.4396,2.4399,2.4401,2.4395,2.4402,2.4407,2.4404,2.4432,2.4424,2.4427,2.4437,2.4465,2.4466,2.4467,2.4476,2.4479,2.4481,0,0,0,0,0,0,2.4346,2.4358,2.4357,2.4377,2.4386,2.4395,2.4405,2.4404,2.4413,2.4412,2.4413,2.4416,2.4432,2.4436,2.4427,2.4456,2.4447,2.4449,2.4452,2.4455,2.4457,2.4456,2.442,0,0,0,0,0,2.435,2.4363,2.4372,2.4388,2.4393,2.4398,2.4405,2.4406,2.4414,2.4418,2.4423,2.4431,2.4442,2.4449,2.4459,2.4477,2.4479,2.4486,2.4488,2.4489,2.4491,2.4501,2.4504,2.4473,2.4473,2.4473,0,0,2.4357,2.4365,2.4373,2.4389,2.4396,2.4408,2.4401,2.4414,2.4423,2.4419,2.4435,2.444,2.4448,2.4466,2.4474,2.447,2.45,2.4491,2.4492,2.4493,2.4503,2.4506,2.4509,2.4474,2.4473,2.4473,0,0,2.4376,2.4384,2.4398,2.4406,2.4417,2.442,2.4424,2.4434,2.4437,2.4453,2.4451,2.4461,2.4479,2.4485,2.4491,2.4513,2.451,2.4516,2.4527,2.4537,2.454,2.4542,2.455,2.4553,2.4518,2.4518,2.4518,0,2.4383,2.4403,2.4406,2.442,2.4427,2.4425,2.444,2.4446,2.4459,2.4464,2.446,2.4483,2.4488,2.4508,2.4513,2.4518,2.4521,2.4515,2.4539,2.4542,2.4544,2.4551,2.4554,2.4519,2.4519,2.4519,2.4518,0,2.4411,2.4424,2.4435,2.4449,2.4457,2.4471,2.4476,2.4484,2.4484,2.4488,2.4504,2.4511,2.4523,2.4527,2.4527,2.4546,2.4543,2.4539,2.4531,2.4547,2.4555,2.4558,2.452,2.4519,2.4519,2.4519,0,0,2.4434,2.445,2.4454,2.446,2.4472,2.4482,2.4496,2.4508,2.4515,2.4524,2.4535,2.4551,2.4547,2.4554,2.4554,2.4563,2.4581,2.4558,2.4558,2.4562,2.4602,2.4606,2.4609,2.4579,2.458,2.458,2.4602,0,2.4454,2.448,2.4483,2.4505,2.4518,2.4516,2.4528,2.4536,2.454,2.4551,2.4554,2.4566,2.456,2.4564,2.4573,2.4577,2.4589,2.4575,2.4589,2.4589,2.4587,2.4613,2.4616,2.4636,2.4604,2.4605,2.4605,0,2.4482,2.4493,2.4517,2.4528,2.4533,2.4544,2.4555,2.4566,2.4575,2.4577,2.4584,2.4584,2.4597,2.4589,2.4607,2.4598,2.4603,2.4606,2.4607,2.4608,2.4598,2.4615,2.4643,2.4646,2.461,2.4609,2.4609,0,2.4496,2.4517,2.4534,2.454,2.4553,2.456,2.4566,2.4575,2.4582,2.4592,2.4597,2.4608,2.4614,2.4622,2.4624,2.4617,2.4642,2.4634,2.4644,2.4644,2.465,2.4649,2.4679,2.4653,2.4653,2.4653,2.4653,0,2.4519,2.4534,2.4541,2.4552,2.4568,2.4571,2.4587,2.4592,2.46,2.4611,2.461,2.462,2.4622,2.4632,2.4634,2.4649,2.4652,2.4653,2.4654,2.4654,2.4654,2.4658,2.4656,2.4654,2.4654,2.4653,2.4653,0,2.4538,2.4544,2.4562,2.4573,2.4577,2.4588,2.4597,2.4607,2.4611,2.4625,2.4628,2.4634,2.4646,2.4649,2.4663,2.4664,2.4682,2.4681,2.4679,2.4679,2.469,2.4689,2.4723,2.4728,2.4699,2.4699,2.4699,0,2.4552,2.4564,2.4577,2.4584,2.4591,2.4603,2.4611,2.4614,2.4622,2.4634,2.4642,2.4654,2.4664,2.4684,2.4689,2.4699,2.4699,2.471,2.47,2.47,2.4699,2.4699,2.47,2.4712,2.4712,2.4712,2.4713,0,2.4577,2.458,2.4592,2.4605,2.4614,2.4624,2.4634,2.464,2.4645,2.4654,2.4667,2.4675,2.469,2.4702,2.4713,2.4717,2.4716,2.4716,2.4719,2.4719,2.4718,2.4719,2.4685,2.4715,2.4715,2.4714,2.4714,2.4714,2.4594,2.4605,2.4616,2.4629,2.4637,2.4646,2.4656,2.4662,2.4673,2.4686,2.4687,2.4701,2.471,2.4725,2.473,2.4741,2.4737,2.4742,2.4743,2.4744,2.4745,2.4716,2.4743,2.4742,2.4742,2.4742,2.4742,0,2.4619,2.4627,2.4639,2.4653,2.4664,2.4662,2.4673,2.4681,2.4694,2.4703,2.4713,2.4728,2.474,2.4746,2.4757,2.4764,2.4764,2.4767,2.4767,2.4768,2.4747,2.4744,2.4768,2.4768,2.4768,2.4768,2.4768,2.4768,2.4634,2.4651,2.4655,2.4676,2.4683,2.4698,2.4704,2.4712,2.4719,2.4736,2.4747,2.4751,2.4758,2.4771,2.4781,2.4782,2.4787,2.4791,2.4792,2.4772,2.4769,2.4767,2.4764,2.4792,2.4792,2.4812,2.4812,2.4812]}]]